Probability
0 0 0 0 0 0 0 0 0 0 0 0 0 0 0 0 0 0 0 0 0 0 0 0 0 0 0 0 0 0 0 0 0 0 0 0 0 0 0 0 0 0 0
0 0 0 0 0 0 0 0 0 0 0 0 0 0 0 0 0 0 0 0 0 0 0 0 0 0 0 0 0 0 0 0 0 0 0 0 0 0 0 0 0 0 0
0 0 0 0 0 0 0 0 0 0 0 0 0 0 0 0 0 0 0 0 0 0 0 0 0 0 0 0 0 0 0 0 0 0 0 0 0 0 0 0 0 0 0
0 0 0 0 0 0 0 0 0 0 0 0 0 0 0 0 0 0 0 0 0 0 0 0 0 0 0 0 0 0 0 0 0 0 0 0 0 0 0 0 0 0 0
3 2 0 0 0 0 0 0 0 0 0 0 0 0 0 0 0 0 0 0 0 0 0 0 0 0 0 0 0 0 0 0 0 0 0 0 0 0 0 0 0 0 0
12 7 2 0 0 0 0 0 0 0 0 0 0 0 0 0 0 0 0 0 0 0 0 0 0 0 0 0 0 0 0 0 0 0 0 0 0 0 0 0 0 0 0
15 9 3 1 0 0 0 0 0 0 0 0 0 0 0 0 0 0 0 0 0 0 0 0 0 0 0 0 0 0 0 0 0 0 0 0 0 0 0 0 0 0 0
6 4 2 0 0 0 0 0 0 0 0 0 0 0 0 0 0 0 0 0 0 0 0 0 0 0 0 0 0 0 0 0 0 0 0 0 0 0 0 0 0 0 0
0 0 0 0 0 0 0 0 0 0 0 0 0 0 0 0 0 0 0 0 0 0 0 0 0 0 0 0 0 0 0 0 0 0 0 0 0 0 0 0 0 0 0
0 0 0 0 0 0 0 0 0 0 0 0 0 0 0 0 0 0 0 0 0 0 0 0 0 0 0 0 0 0 0 0 0 0 0 0 0 0 0 0 0 0 0
0 0 0 0 0 0 0 0 0 0 0 0 0 0 0 0 0 0 0 0 0 0 0 0 0 0 0 0 0 0 0 0 0 0 0 0 0 0 0 0 0 0 0
0 0 0 0 0 0 0 0 0 0 0 0 0 0 0 0 0 0 0 0 0 0 0 0 0 0 0 0 0 0 0 0 0 0 0 0 0 0 0 0 0 0 0
0 0 0 0 0 0 0 0 0 0 0 0 0 0 0 0 0 0 0 0 0 0 0 0 0 0 0 0 0 0 0 0 0 0 0 0 0 0 0 0 0 0 0
0 0 0 0 0 0 0 0 0 0 0 0 0 0 0 0 0 0 0 0 0 0 0 0 0 0 0 0 0 0 0 0 0 0 0 0 0 0 0 0 0 0 0
0 0 0 0 0 0 0 0 0 0 0 0 0 0 0 0 0 0 0 0 0 0 0 0 0 0 0 0 0 0 0 0 0 0 0 0 0 0 0 0 0 0 0
0 0 0 0 0 0 0 0 0 0 0 0 0 0 0 0 0 0 0 0 0 0 0 0 0 0 0 0 0 0 0 0 0 0 0 0 0 0 0 0 0 0 0
0 0 0 0 0 0 0 0 0 0 0 0 0 0 0 0 0 0 0 0 0 0 0 0 0 0 0 0 0 0 0 0 0 0 0 0 0 0 0 0 0 0 0
0 0 0 0 0 0 0 0 0 0 0 0 0 0 0 0 0 0 0 0 0 0 0 0 0 0 0 0 0 0 0 0 0 0 0 0 0 0 0 0 0 0 0
0 0 0 0 0 0 0 0 0 0 0 0 0 0 0 0 0 0 0 0 0 0 0 0 0 0 0 0 0 0 0 0 0 0 0 0 0 0 0 0 0 0 0
0 0 0 0 0 0 0 0 0 0 0 0 0 0 0 0 0 0 0 0 0 0 0 0 0 0 0 0 0 0 0 0 0 0 0 0 0 0 0 0 0 0 0
0 0 0 0 0 0 0 0 0 0 0 0 0 0 0 0 0 0 0 0 0 0 0 0 0 0 0 0 0 0 0 0 0 0 0 0 0 0 0 0 0 0 0
0 0 0 0 0 0 0 0 0 0 0 0 0 0 0 0 0 0 0 0 0 0 0 0 0 0 0 0 0 0 0 0 0 0 0 0 0 0 0 0 0 0 0
0 0 0 0 0 0 0 0 0 0 0 0 0 0 0 0 0 0 0 0 0 0 0 0 0 0 0 0 0 0 0 0 0 0 0 0 0 0 0 0 0 0 0
0 0 0 0 0 0 0 0 0 0 0 0 0 0 0 0 0 0 0 0 0 0 0 0 0 0 0 0 0 0 0 0 0 0 0 0 0 0 0 0 0 0 0
0 0 0 0 0 0 0 0 0 0 0 0 0 0 0 0 0 0 0 0 0 0 0 0 0 0 0 0 0 0 0 0 0 0 0 0 0 0 0 0 0 0 0
0 0 0 0 0 0 0 0 0 0 0 0 0 0 0 0 0 0 0 0 0 0 0 0 0 0 0 0 0 0 0 0 0 0 0 0 0 0 0 0 0 0 0
Wind_Speed
5 5 4 4 6 5 5 5 5 6 6 7 7 8 9 9 9 8 6 14 15 14 15 14 12 12 12 12 12 12 12 13 12 12 13 14 15 14 16 19 19 18 17
6 5 5 5 5 5 5 5 6 5 5 5 8 8 9 9 9 9 8 9 14 15 14 14 13 11 12 12 12 11 11 12 11 11 12 13 14 13 15 19 21 19 18
7 6 5 5 6 5 5 4 5 4 5 5 8 9 8 8 9 9 9 7 8 12 14 13 12 11 12 13 13 12 11 12 11 11 11 11 12 13 14 18 21 21 19
8 6 5 6 6 4 4 4 4 4 5 5 6 7 7 7 9 9 8 8 7 7 10 13 13 11 12 14 14 13 12 11 11 11 12 12 12 13 14 16 21 21 20
7 5 5 5 4 4 4 5 4 4 5 6 6 6 7 7 8 9 9 9 9 8 7 9 13 12 14 14 14 14 12 12 12 12 13 13 13 13 13 15 20 22 22
4 4 3 4 3 3 4 4 5 5 5 6 7 7 7 8 8 9 10 8 8 9 9 8 7 8 13 14 14 14 14 13 13 14 14 14 14 13 13 15 18 23 24
2 2 0 2 2 3 5 5 5 6 5 4 4 6 6 8 9 9 9 8 9 9 8 8 7 6 6 12 14 14 15 15 14 14 14 14 14 13 13 14 17 23 25
3 2 1 2 3 3 5 6 5 4 4 4 4 4 5 4 5 7 7 7 8 6 8 8 7 7 6 5 8 12 13 14 15 14 14 13 13 13 12 14 17 23 25
2 2 2 2 3 3 5 6 7 8 7 4 5 6 5 5 4 3 3 4 5 4 5 5 7 7 7 6 6 9 12 12 13 15 13 12 11 12 12 13 15 22 25
1 1 1 2 3 3 5 6 6 6 8 7 4 6 7 5 4 4 3 2 3 4 4 4 5 5 6 6 7 9 11 11 11 12 12 11 11 10 11 12 15 21 26
1 1 1 2 2 2 3 4 5 5 5 6 5 4 5 5 6 6 6 4 3 2 3 4 3 4 5 5 5 8 10 9 8 8 9 11 12 12 12 13 14 19 26
0 1 2 2 2 2 3 4 4 5 4 5 4 4 3 3 3 5 7 6 4 3 3 3 3 4 4 4 6 8 7 6 5 6 8 10 13 14 15 15 16 18 25
0 2 2 2 2 3 4 4 4 5 5 5 4 2 2 3 3 3 4 3 3 2 3 2 2 3 3 3 3 5 4 3 3 4 7 9 11 13 14 15 16 18 24
0 1 3 3 3 4 4 5 4 4 4 4 3 2 1 1 1 1 1 1 1 2 2 3 2 2 2 1 1 2 1 3 3 3 6 7 8 8 10 12 13 16 23
1 2 3 3 4 4 4 4 3 4 4 3 3 2 2 2 3 2 2 1 1 1 2 2 3 3 2 1 1 1 1 3 2 2 3 4 4 3 6 10 12 17 23
2 3 3 4 4 4 4 3 3 4 4 3 2 3 2 2 2 2 2 2 1 1 2 2 3 3 3 2 2 2 3 4 2 1 1 1 2 3 6 11 16 21 24
3 3 3 4 4 4 4 3 4 4 3 4 4 4 4 4 3 3 2 2 2 1 3 4 3 3 3 3 2 3 3 3 2 2 1 2 4 6 9 13 17 20 22
5 5 5 5 5 5 5 5 5 4 4 5 5 6 6 4 5 4 3 3 2 2 3 5 3 3 4 3 3 4 3 3 2 3 2 3 5 7 10 13 16 18 19
6 6 6 5 5 5 5 6 5 6 7 7 6 6 5 5 5 4 4 4 3 3 2 2 3 2 3 2 1 2 2 2 2 3 4 4 6 7 10 12 15 16 17
6 5 5 5 5 5 6 6 6 7 7 7 6 6 6 5 4 4 4 4 4 4 3 2 2 2 3 3 2 1 2 2 1 2 3 3 5 7 9 11 12 14 15
5 5 5 5 5 5 5 5 6 6 6 6 7 6 6 7 6 4 3 3 4 4 4 4 3 3 4 4 3 2 2 2 2 1 2 2 3 4 6 8 10 11 12
5 5 5 5 6 5 8 10 8 8 7 7 7 7 6 9 9 9 8 7 6 5 5 4 4 5 5 5 5 4 2 1 2 1 2 2 3 4 5 6 9 11 12
4 4 4 4 5 6 10 12 12 8 7 7 7 7 7 8 10 8 8 9 9 9 7 2 4 4 5 5 6 5 4 2 1 1 1 1 1 2 2 3 7 10 12
4 3 3 4 5 6 10 11 10 7 7 7 7 7 7 8 9 8 7 9 9 9 8 5 4 4 4 5 4 3 3 3 3 4 3 2 1 1 0 1 4 6 8
4 4 4 5 6 5 6 7 7 5 6 7 7 7 8 8 12 11 9 9 9 8 8 8 8 9 11 12 9 5 6 5 4 4 4 2 2 1 1 1 2 5 6
6 6 6 6 7 6 7 7 6 5 5 4 5 6 10 9 10 10 7 7 8 6 6 8 9 10 10 11 13 9 6 5 3 3 3 2 2 2 2 1 1 2 3
Wind_Direction
236 240 245 252 258 255 250 251 250 251 257 264 263 258 259 256 256 254 257 264 265 263 263 262 262 258 253 247 244 244 246 249 247 242 240 241 242 236 223 212 208 206 203
230 232 241 247 253 252 248 245 246 250 256 261 266 262 260 260 258 255 253 260 262 260 259 259 260 259 258 254 247 243 243 247 247 244 242 242 242 238 225 214 208 206 203
229 230 237 246 248 247 248 246 249 248 257 259 264 266 264 259 258 258 256 252 256 255 253 253 255 254 255 256 251 244 240 241 243 243 243 243 244 240 230 216 208 204 201
224 224 231 243 242 235 235 240 244 248 253 255 261 268 268 267 264 261 259 252 246 245 247 249 251 249 250 254 253 247 239 239 241 242 242 242 243 241 234 221 209 202 198
222 215 227 241 245 240 240 243 245 238 255 260 262 267 268 269 270 268 261 254 242 237 238 244 247 247 249 250 248 245 241 240 243 246 248 247 245 241 234 224 211 201 196
209 201 219 243 250 255 260 255 259 255 252 263 273 273 269 269 270 268 264 258 246 236 232 235 242 248 247 245 240 237 240 242 245 249 252 250 247 240 232 224 212 201 196
143 141 214 294 290 273 275 278 276 271 260 246 265 274 265 259 259 262 258 252 248 237 226 227 231 234 241 240 238 234 238 243 245 248 250 251 249 243 233 222 212 201 195
78 62 12 322 305 292 287 277 264 264 253 221 235 268 286 289 262 254 253 249 247 234 229 225 225 228 232 235 234 230 236 246 251 251 251 253 252 244 235 223 211 200 195
63 42 354 322 306 291 287 284 273 266 270 254 225 239 259 262 299 298 280 271 259 239 234 228 229 231 233 233 234 233 237 245 253 257 259 262 258 245 235 224 213 201 195
25 11 349 335 317 304 295 292 284 273 273 275 255 233 240 254 261 294 301 297 286 257 247 237 240 241 235 231 229 230 236 237 241 253 264 269 265 250 236 227 221 206 195
297 4 15 6 351 334 325 318 310 295 280 278 270 251 249 247 238 248 277 293 301 281 260 257 258 255 243 230 230 232 231 227 230 248 264 270 267 257 243 231 229 212 196
281 20 20 7 350 343 338 330 318 309 296 284 273 250 240 242 237 237 248 262 277 290 289 273 262 262 256 240 235 230 221 211 223 251 269 273 269 260 246 234 226 212 195
44 4 6 348 340 336 335 333 323 319 310 302 295 283 264 253 244 235 240 256 264 286 304 299 276 282 277 248 233 205 194 203 234 264 280 281 275 262 243 226 219 206 188
348 349 349 340 333 336 338 337 328 328 322 315 324 342 350 334 321 296 276 278 296 301 303 299 310 302 305 272 196 167 186 225 249 284 294 293 286 266 233 209 202 185 173
32 18 10 2 352 347 343 339 336 340 343 358 10 26 36 22 29 21 11 11 341 316 301 301 305 310 320 275 186 184 231 235 243 286 304 313 313 274 202 182 171 159 156
53 39 29 17 3 350 344 343 336 341 357 9 25 49 47 33 32 25 12 356 328 265 275 276 267 281 288 267 209 207 230 223 213 236 295 5 48 100 132 145 145 146 150
48 46 32 20 4 349 343 348 345 350 16 32 34 38 32 23 21 16 16 1 342 306 277 284 267 272 275 267 216 213 221 215 207 208 184 116 107 112 122 133 138 144 151
60 55 48 38 21 7 1 1 358 14 36 42 37 37 30 34 36 22 21 13 349 316 282 297 303 305 287 278 236 217 214 211 205 198 175 142 132 128 130 135 141 146 150
68 59 53 42 24 12 12 20 37 48 51 49 40 34 20 22 26 16 17 11 352 334 308 300 305 302 304 317 264 217 213 206 205 186 170 149 143 141 141 144 147 150 155
78 66 55 43 28 24 30 41 53 56 54 46 36 28 16 10 2 359 6 3 353 353 351 344 319 318 315 314 298 253 224 203 204 180 158 142 146 148 152 154 157 161 168
83 74 62 46 35 35 37 57 60 58 51 41 31 25 25 32 26 20 12 360 0 4 5 8 359 357 357 350 339 314 242 188 193 173 157 152 152 159 168 173 177 180 184
88 77 63 57 49 44 63 72 77 67 55 43 28 14 23 29 21 28 32 35 31 19 11 15 13 11 359 347 333 325 300 189 196 176 165 157 163 183 187 192 195 195 199
99 88 72 71 67 60 82 83 81 77 62 44 31 23 25 18 17 13 18 33 35 33 31 19 26 11 349 331 334 348 354 352 28 36 109 127 128 202 193 199 200 206 211
108 93 77 81 83 79 101 99 91 80 68 50 39 31 31 22 14 8 25 36 35 32 26 29 23 359 339 331 331 330 333 357 40 29 26 77 60 20 14 188 189 201 211
106 88 76 78 85 75 95 106 95 82 70 53 39 35 36 33 15 25 37 34 33 27 26 43 49 41 32 26 18 22 21 28 25 18 14 41 23 352 322 255 196 198 201
110 101 82 70 77 72 70 83 97 90 75 54 36 30 30 29 25 33 39 36 29 5 4 25 30 27 28 28 29 28 17 24 17 14 11 25 6 358 345 311 264 207 197